timestamp,wind_dir_avg,wind_spd_avg,wind_spd_max_dir,wind_spd_gust,battery_voltage,lat,long
2022-01-19 00:04:01+00:00,213.0,8.57,215.0,9.86,12.33,47.59359,-54.27349
2022-01-19 00:14:00+00:00,209.0,8.96,207.0,10.12,12.33,47.59359,-54.27349
2022-01-19 00:24:00+00:00,211.0,8.55,208.0,9.74,12.33,47.59359,-54.27349
2022-01-19 00:34:00+00:00,214.0,7.62,216.0,8.63,12.33,47.59359,-54.27349
2022-01-19 00:44:00+00:00,212.0,7.93,212.0,8.86,12.33,47.59359,-54.27349
2022-01-19 00:54:00+00:00,212.0,8.4,214.0,9.62,12.33,47.59359,-54.27349
2022-01-19 01:04:00+00:00,213.0,8.48,216.0,9.36,12.33,47.59359,-54.27349
2022-01-19 01:14:00+00:00,206.0,7.29,205.0,8.02,12.25,47.59359,-54.27349
2022-01-19 01:24:00+00:00,203.0,8.14,206.0,9.11,12.25,47.59359,-54.27349
2022-01-19 01:34:00+00:00,201.0,7.85,200.0,8.47,12.25,47.59359,-54.27349
2022-01-19 01:44:00+00:00,198.0,7.55,204.0,8.81,12.25,47.59359,-54.27349
2022-01-19 01:54:00+00:00,201.0,7.64,202.0,8.58,12.25,47.59359,-54.27349
2022-01-19 02:04:00+00:00,207.0,8.62,206.0,9.42,12.25,47.59359,-54.27349
2022-01-19 02:14:00+00:00,207.0,8.06,215.0,9.31,12.25,47.59359,-54.27349
2022-01-19 02:24:00+00:00,208.0,8.34,208.0,9.46,12.25,47.59359,-54.27349
2022-01-19 02:34:00+00:00,207.0,8.96,211.0,10.02,12.25,47.59359,-54.27349
2022-01-19 02:44:00+00:00,212.0,9.2,215.0,10.38,12.25,47.59359,-54.27349
2022-01-19 02:54:00+00:00,211.0,9.15,209.0,10.64,12.25,47.59359,-54.27349
2022-01-19 03:04:00+00:00,206.0,9.25,205.0,10.18,12.25,47.59359,-54.27349
2022-01-19 03:14:01+00:00,202.0,9.0,203.0,9.99,12.25,47.59359,-54.27349
2022-01-19 03:24:01+00:00,208.0,8.78,209.0,9.77,12.25,47.59359,-54.27349
2022-01-19 03:34:01+00:00,206.0,8.82,210.0,10.07,12.25,47.59359,-54.27349
2022-01-19 03:44:01+00:00,202.0,9.53,198.0,10.8,12.25,47.59359,-54.27349
2022-01-19 03:54:01+00:00,215.0,7.44,212.0,8.65,12.25,47.59359,-54.27349
2022-01-19 04:04:01+00:00,210.0,8.92,213.0,10.15,12.25,47.59359,-54.27349
2022-01-19 04:14:00+00:00,213.0,9.54,210.0,11.06,12.25,47.59359,-54.27349
2022-01-19 04:24:00+00:00,215.0,9.92,213.0,11.56,12.25,47.59359,-54.27349
2022-01-19 04:34:00+00:00,212.0,9.0,207.0,9.79,12.25,47.59359,-54.27349
2022-01-19 04:44:00+00:00,212.0,9.43,212.0,10.55,12.25,47.59359,-54.27349
2022-01-19 04:54:00+00:00,215.0,8.66,213.0,9.89,12.25,47.59359,-54.27349
2022-01-19 05:04:00+00:00,211.0,8.86,210.0,9.7,12.25,47.59359,-54.27349
2022-01-19 05:14:00+00:00,202.0,9.34,201.0,10.43,12.25,47.59359,-54.27349
2022-01-19 05:24:00+00:00,207.0,8.89,209.0,9.64,12.25,47.59359,-54.27349
2022-01-19 05:34:00+00:00,203.0,7.99,208.0,8.64,12.25,47.59359,-54.27349
2022-01-19 05:44:00+00:00,210.0,7.39,208.0,8.76,12.25,47.59359,-54.27349
2022-01-19 05:54:00+00:00,202.0,7.91,202.0,9.77,12.25,47.59359,-54.27349
2022-01-19 06:04:00+00:00,202.0,9.19,206.0,10.26,12.25,47.59359,-54.27349
2022-01-19 06:14:01+00:00,210.0,9.53,214.0,10.6,12.25,47.59359,-54.27349
2022-01-19 06:24:01+00:00,210.0,10.46,213.0,12.44,12.25,47.59359,-54.27349
2022-01-19 06:34:01+00:00,211.0,11.02,208.0,13.27,12.25,47.59359,-54.27349
2022-01-19 06:44:01+00:00,212.0,11.58,209.0,13.85,12.25,47.59359,-54.27349
2022-01-19 06:54:01+00:00,214.0,10.84,215.0,12.02,12.25,47.59359,-54.27349
2022-01-19 07:04:01+00:00,216.0,11.67,217.0,13.77,12.25,47.59359,-54.27349
2022-01-19 07:14:00+00:00,213.0,11.06,214.0,12.58,12.25,47.59359,-54.27349
2022-01-19 07:24:00+00:00,212.0,11.12,211.0,13.4,12.25,47.59359,-54.27349
2022-01-19 07:34:00+00:00,215.0,10.2,215.0,12.45,12.25,47.59359,-54.27349
2022-01-19 07:44:00+00:00,217.0,11.47,218.0,12.7,12.25,47.59359,-54.27349
2022-01-19 07:54:00+00:00,223.0,12.03,216.0,13.43,12.25,47.59359,-54.27349
2022-01-19 08:04:00+00:00,218.0,11.39,215.0,14.29,12.25,47.59359,-54.27349
2022-01-19 08:14:00+00:00,228.0,10.24,225.0,12.31,12.17,47.59359,-54.27349
2022-01-19 08:24:00+00:00,224.0,10.98,216.0,13.79,12.17,47.59359,-54.27349
2022-01-19 08:34:00+00:00,224.0,10.98,218.0,13.16,12.17,47.59359,-54.27349
2022-01-19 08:44:00+00:00,221.0,10.61,224.0,12.36,12.17,47.59359,-54.27349
2022-01-19 08:54:00+00:00,224.0,11.06,220.0,12.71,12.17,47.59359,-54.27349
2022-01-19 09:04:00+00:00,217.0,11.89,215.0,13.81,12.17,47.59359,-54.27349
2022-01-19 09:14:00+00:00,218.0,12.08,214.0,13.86,12.17,47.59359,-54.27349
2022-01-19 09:24:00+00:00,218.0,10.96,219.0,12.72,12.17,47.59359,-54.27349
2022-01-19 09:34:00+00:00,223.0,11.03,216.0,12.02,12.17,47.59359,-54.27349
2022-01-19 09:44:00+00:00,227.0,9.27,224.0,10.26,12.17,47.59359,-54.27349
2022-01-19 09:54:00+00:00,222.0,9.33,219.0,10.53,12.17,47.59359,-54.27349
2022-01-19 10:04:00+00:00,224.0,10.15,216.0,11.91,12.17,47.59359,-54.27349
2022-01-19 10:14:00+00:00,227.0,10.15,221.0,11.99,12.17,47.59359,-54.27349
2022-01-19 10:24:00+00:00,267.0,12.91,262.0,17.87,12.17,47.59359,-54.27349
2022-01-19 10:34:00+00:00,269.0,16.63,274.0,18.49,12.17,47.59359,-54.27349
2022-01-19 10:44:00+00:00,264.0,11.68,267.0,16.73,12.17,47.59359,-54.27349
2022-01-19 10:54:00+00:00,257.0,12.55,262.0,17.11,12.17,47.59359,-54.27349
2022-01-19 11:04:00+00:00,266.0,15.22,258.0,18.26,12.17,47.59359,-54.27349
2022-01-19 11:14:01+00:00,264.0,14.84,261.0,18.05,12.17,47.59359,-54.27349
2022-01-19 11:24:01+00:00,263.0,15.45,267.0,18.07,12.17,47.59359,-54.27349
2022-01-19 11:34:01+00:00,263.0,14.99,265.0,17.78,12.17,47.59359,-54.27349
2022-01-19 11:44:01+00:00,263.0,14.14,262.0,17.42,12.17,47.59359,-54.27349
2022-01-19 11:54:01+00:00,266.0,10.55,268.0,12.14,12.17,47.59359,-54.27349
2022-01-19 12:04:01+00:00,257.0,12.03,264.0,15.78,12.17,47.59359,-54.27349
2022-01-19 12:14:01+00:00,268.0,12.79,261.0,15.3,12.17,47.59359,-54.27349
2022-01-19 12:24:01+00:00,274.0,13.27,277.0,16.67,12.17,47.59359,-54.27349
2022-01-19 12:34:01+00:00,267.0,13.2,272.0,16.46,12.17,47.59359,-54.27349
2022-01-19 12:44:01+00:00,255.0,13.09,259.0,16.65,12.17,47.59359,-54.27349
2022-01-19 12:54:01+00:00,258.0,12.34,267.0,15.86,12.17,47.59359,-54.27349
2022-01-19 13:04:01+00:00,251.0,12.33,258.0,14.7,12.17,47.59359,-54.27349
2022-01-19 13:14:01+00:00,240.0,12.15,238.0,14.58,14.4,47.59359,-54.27349
2022-01-19 13:24:01+00:00,250.0,11.39,251.0,13.11,14.4,47.59359,-54.27349
2022-01-19 13:34:01+00:00,242.0,13.07,247.0,15.95,14.4,47.59359,-54.27349
2022-01-19 13:44:01+00:00,240.0,11.48,242.0,12.95,14.4,47.59359,-54.27349
2022-01-19 13:54:01+00:00,240.0,12.32,238.0,14.84,14.4,47.59359,-54.27349
2022-01-19 14:04:01+00:00,243.0,12.24,244.0,13.54,14.4,47.59359,-54.27349
2022-01-19 14:14:00+00:00,232.0,12.34,235.0,14.32,12.89,47.59359,-54.27349
2022-01-19 14:24:00+00:00,235.0,12.74,236.0,14.96,12.89,47.59359,-54.27349
2022-01-19 14:34:00+00:00,235.0,12.86,237.0,14.46,12.89,47.59359,-54.27349
2022-01-19 14:44:00+00:00,238.0,11.87,238.0,13.78,12.89,47.59359,-54.27349
2022-01-19 14:54:00+00:00,238.0,12.46,245.0,15.11,12.89,47.59359,-54.27349
2022-01-19 15:04:00+00:00,244.0,11.96,241.0,13.58,12.89,47.59359,-54.27349
2022-01-19 15:14:01+00:00,265.0,11.54,265.0,13.33,13.21,47.59359,-54.27349
2022-01-19 15:24:01+00:00,278.0,12.61,282.0,14.69,13.21,47.59359,-54.27349
2022-01-19 15:34:01+00:00,274.0,10.33,277.0,12.11,13.21,47.59359,-54.27349
2022-01-19 15:44:01+00:00,270.0,10.02,270.0,11.97,13.21,47.59359,-54.27349
2022-01-19 15:54:01+00:00,275.0,11.32,274.0,13.19,13.21,47.59359,-54.27349
2022-01-19 16:04:01+00:00,282.0,12.16,287.0,14.78,13.21,47.59359,-54.27349
2022-01-19 16:14:01+00:00,263.0,12.91,261.0,15.76,13.13,47.59359,-54.27349
2022-01-19 16:24:01+00:00,271.0,13.08,261.0,14.51,13.13,47.59359,-54.27349
2022-01-19 16:34:01+00:00,268.0,14.71,268.0,20.64,13.13,47.59359,-54.27349
2022-01-19 16:44:01+00:00,270.0,11.96,276.0,14.49,13.13,47.59359,-54.27349
2022-01-19 16:54:01+00:00,269.0,12.4,269.0,16.88,13.13,47.59359,-54.27349
2022-01-19 17:04:01+00:00,271.0,11.93,277.0,14.73,13.13,47.59359,-54.27349
2022-01-19 17:14:01+00:00,278.0,10.93,276.0,13.18,12.97,47.59359,-54.27349
2022-01-19 17:24:01+00:00,282.0,12.91,276.0,16.03,12.97,47.59359,-54.27349
2022-01-19 17:34:01+00:00,284.0,12.77,288.0,15.43,12.97,47.59359,-54.27349
2022-01-19 17:44:01+00:00,284.0,12.31,283.0,14.42,12.97,47.59359,-54.27349
2022-01-19 17:54:01+00:00,280.0,12.09,281.0,13.28,12.97,47.59359,-54.27349
2022-01-19 18:04:01+00:00,277.0,12.13,278.0,14.38,12.97,47.59359,-54.27349
2022-01-19 18:14:01+00:00,279.0,11.96,282.0,14.32,12.97,47.59359,-54.27349
2022-01-19 18:24:01+00:00,283.0,12.86,285.0,14.54,12.97,47.59359,-54.27349
2022-01-19 18:34:01+00:00,289.0,9.84,287.0,14.56,12.97,47.59359,-54.27349
2022-01-19 18:44:01+00:00,277.0,11.53,281.0,13.91,12.97,47.59359,-54.27349
2022-01-19 18:54:01+00:00,279.0,11.58,281.0,14.04,12.97,47.59359,-54.27349
2022-01-19 19:04:01+00:00,281.0,11.65,286.0,13.66,12.97,47.59359,-54.27349
2022-01-19 19:14:01+00:00,276.0,12.04,272.0,14.87,12.81,47.59359,-54.27349
2022-01-19 19:24:01+00:00,280.0,12.08,282.0,14.47,12.81,47.59359,-54.27349
2022-01-19 19:34:01+00:00,285.0,13.33,291.0,15.18,12.81,47.59359,-54.27349
2022-01-19 19:44:01+00:00,277.0,12.2,284.0,13.96,12.81,47.59359,-54.27349
2022-01-19 19:54:01+00:00,271.0,11.96,273.0,14.48,12.81,47.59359,-54.27349
2022-01-19 20:04:01+00:00,271.0,12.09,271.0,14.44,12.81,47.59359,-54.27349
2022-01-19 20:14:01+00:00,284.0,12.93,286.0,15.22,12.57,47.59359,-54.27349
2022-01-19 20:24:01+00:00,266.0,11.37,267.0,13.96,12.57,47.59359,-54.27349
2022-01-19 20:34:01+00:00,269.0,10.79,267.0,14.0,12.57,47.59359,-54.27349
2022-01-19 20:44:01+00:00,272.0,10.05,272.0,14.2,12.57,47.59359,-54.27349
2022-01-19 20:54:01+00:00,274.0,8.91,271.0,13.97,12.57,47.59359,-54.27349
2022-01-19 21:04:01+00:00,275.0,9.22,275.0,13.28,12.57,47.59359,-54.27349
2022-01-19 21:14:01+00:00,272.0,12.15,275.0,14.52,12.57,47.59359,-54.27349
2022-01-19 21:24:01+00:00,280.0,12.06,280.0,14.66,12.57,47.59359,-54.27349
2022-01-19 21:34:01+00:00,274.0,11.92,277.0,14.59,12.57,47.59359,-54.27349
2022-01-19 21:44:01+00:00,265.0,12.51,261.0,13.91,12.57,47.59359,-54.27349
2022-01-19 21:54:01+00:00,276.0,11.43,276.0,14.74,12.57,47.59359,-54.27349
2022-01-19 22:04:01+00:00,278.0,11.86,281.0,16.38,12.57,47.59359,-54.27349
2022-01-19 22:14:00+00:00,282.0,12.66,283.0,14.97,12.49,47.59359,-54.27349
2022-01-19 22:24:00+00:00,284.0,13.35,283.0,15.05,12.49,47.59359,-54.27349
2022-01-19 22:34:00+00:00,279.0,13.21,279.0,14.79,12.49,47.59359,-54.27349
2022-01-19 22:44:00+00:00,282.0,13.43,288.0,15.08,12.49,47.59359,-54.27349
2022-01-19 22:54:00+00:00,279.0,12.91,282.0,14.75,12.49,47.59359,-54.27349
2022-01-19 23:04:00+00:00,279.0,12.84,281.0,14.44,12.49,47.59359,-54.27349
2022-01-19 23:14:01+00:00,275.0,13.33,277.0,14.42,12.41,47.59359,-54.27349
2022-01-19 23:24:01+00:00,275.0,12.97,281.0,14.55,12.41,47.59359,-54.27349
2022-01-19 23:34:01+00:00,274.0,12.88,273.0,14.29,12.41,47.59359,-54.27349
2022-01-19 23:44:01+00:00,275.0,11.87,280.0,15.0,12.41,47.59359,-54.27349
2022-01-19 23:54:01+00:00,278.0,13.05,279.0,14.76,12.41,47.59359,-54.27349
